Weather in Sittseva

Russia / Chelyabinsk Oblast     55°47′12″N   59°44′02″E
temp.,
°C
wind,
m/s
gust,
m/s
humid.,
%
clouds,
%
prec.,
mm/h
press.,
hPa
HPBL,
m
15 april, thu
thu1523:00+9s118650 0.0 102810
02:00+8sw118849 0.0 102710
05:00+7sw229248 0.0 102816
08:00+9sw24908 0.0 1027126
11:00+14wsw47515 0.0 1025695
14:00+16wsw47445 0.0 1023970
17:00+16wsw474658 0.0 10221063
20:00+11wsw22695 0.0 102116
16 april, fri
fri1623:00+8wsw22790 0.0 102111
02:00+7sw228311 0.0 102119
05:00+6sw2285100 0.0 102114
08:00+7nne1278100 0.0 102295
11:00+6e4790100 0.0 1023539
14:00+5e5888100 0.0 1025582
17:00+4e4889100 0.0 1025561
20:00+3e489499 0.0 1025491
17 april, sat
sat1723:00+3e388962 0.0 1025416
02:00+3e278995 0.0 1024281
05:00+3e278099 0.0 1024302
08:00+3ene247328 0.0 1024310
11:00+7ne33538 0.0 10241084
14:00+10n22373 0.0 10221517
17:00+10nw33353 0.0 10211686
20:00+5nw25555 0.0 1021114
18 april, sun
sun1823:00+3wnw26725 0.0 1021146
02:00+1wnw26785 0.0 1021150
05:000w311807 0.0 1020343
08:00+2nw4117612 0.0 1019741
11:00+2n5766100 0.3 10201070
14:00+4nne5632100 0.0 10212339
17:00+2nne5636100 0.0 10242065
20:00−1ne48455 0.0 1028980
19 april, mon
mon1923:00−3ne38500 0.0 1030734
02:00−4ne36490 0.0 1032827
05:00−5nne38470 0.0 10341317
08:00−5nne48375 0.0 10351413
11:00−2nne572934 0.0 10351904
14:000nne47255 0.0 10352158
17:000nne46265 0.0 10352157
20:00−3ne22430 0.0 103627